When you browse on this site, cookies collect data to enhance your experience and personalize the content and advertising you see.
Visit our Privacy Policy to learn more. By continuing to use the site, you agree to this use of cookies and data.
  • In Österreich
  • Länderverzeichnis
  • Für 7 Tage
  • Wassertemperatur
  • Wetterkarte
  • News
  • Widgets
  • user-avatar
    Anmelden

    Stündliche Wetter Tlahuelilpan

    Heute, 6 Dezember, Freitag

    Zeit Temperatur Niederschläge Wind Luftdruck Luftfeuchtigkeit
    00:00 +11°C° 0 mm 0 m/S 596 mmHg 74%
    01:00 +11°C° 0 mm 0 m/S 596 mmHg 74%
    02:00 +12°C° 0 mm 1 m/S 595 mmHg 74%
    03:00 +11°C° 0 mm 1 m/S 595 mmHg 73%
    04:00 +11°C° 0 mm 1 m/S 595 mmHg 71%
    05:00 +9°C° 0 mm 0 m/S 595 mmHg 69%
    06:00 +11°C° 0 mm 0 m/S 597 mmHg 60%
    07:00 +14°C° 0 mm 1 m/S 598 mmHg 51%
    08:00 +16°C° 0 mm 1 m/S 599 mmHg 41%
    09:00 +19°C° 0 mm 1 m/S 600 mmHg 34%
    10:00 +20°C° 0 mm 2 m/S 600 mmHg 26%
    11:00 +23°C° 0 mm 2 m/S 601 mmHg 19%
    12:00 +22°C° 0 mm 3 m/S 601 mmHg 19%
    13:00 +23°C° 0 mm 4 m/S 600 mmHg 19%
    14:00 +23°C° 0 mm 5 m/S 600 mmHg 19%
    15:00 +21°C° 0 mm 5 m/S 599 mmHg 27%
    16:00 +19°C° 0 mm 4 m/S 599 mmHg 35%
    17:00 +17°C° 0 mm 4 m/S 598 mmHg 43%
    18:00 +16°C° 0 mm 3 m/S 598 mmHg 53%
    19:00 +14°C° 0 mm 2 m/S 599 mmHg 63%
    20:00 +13°C° 0 mm 2 m/S 599 mmHg 73%
    21:00 +12°C° 0 mm 1 m/S 598 mmHg 79%
    22:00 +12°C° 0 mm 1 m/S 598 mmHg 84%
    23:00 +11°C° 0 mm 1 m/S 598 mmHg 90%

    Morgen, 7 Dezember, Samstag

    Zeit Temperatur Niederschläge Wind Luftdruck Luftfeuchtigkeit
    00:00 +10°C° 0 mm 1 m/S 598 mmHg 91%
    01:00 +10°C° 0 mm 1 m/S 597 mmHg 93%
    02:00 +10°C° 0 mm 1 m/S 597 mmHg 94%
    03:00 +9°C° 0 mm 1 m/S 597 mmHg 93%
    04:00 +8°C° 0 mm 0 m/S 597 mmHg 92%
    05:00 +8°C° 0 mm 0 m/S 597 mmHg 91%
    06:00 +9°C° 0 mm 0 m/S 598 mmHg 83%
    07:00 +11°C° 0 mm 1 m/S 598 mmHg 74%
    08:00 +12°C° 0 mm 1 m/S 599 mmHg 65%
    09:00 +14°C° 0 mm 1 m/S 600 mmHg 54%
    10:00 +16°C° 0 mm 1 m/S 600 mmHg 43%
    11:00 +20°C° 0 mm 1 m/S 601 mmHg 32%
    12:00 +19°C° 0 mm 2 m/S 600 mmHg 30%
    13:00 +20°C° 0 mm 2 m/S 600 mmHg 28%
    14:00 +21°C° 0 mm 2 m/S 600 mmHg 26%
    15:00 +20°C° 0 mm 2 m/S 599 mmHg 33%
    16:00 +18°C° 0 mm 2 m/S 598 mmHg 39%
    17:00 +16°C° 0 mm 2 m/S 598 mmHg 45%
    18:00 +15°C° 0 mm 2 m/S 598 mmHg 54%
    19:00 +14°C° 0 mm 1 m/S 598 mmHg 64%
    20:00 +13°C° 0 mm 1 m/S 598 mmHg 73%
    21:00 +12°C° 0 mm 1 m/S 598 mmHg 78%
    22:00 +11°C° 0 mm 0 m/S 597 mmHg 82%
    23:00 +10°C° 0 mm 0 m/S 597 mmHg 87%

    übermorgen, 8 Dezember, Sonntag

    Zeit Temperatur Niederschläge Wind Luftdruck Luftfeuchtigkeit
    00:00 +10°C° 0 mm 0 m/S 597 mmHg 86%
    01:00 +10°C° 0 mm 0 m/S 596 mmHg 86%
    02:00 +10°C° 0 mm 1 m/S 596 mmHg 86%
    03:00 +10°C° 0 mm 1 m/S 595 mmHg 84%
    04:00 +9°C° 0 mm 1 m/S 595 mmHg 82%
    05:00 +9°C° 0 mm 1 m/S 595 mmHg 80%
    06:00 +11°C° 0 mm 1 m/S 596 mmHg 70%
    07:00 +13°C° 0 mm 1 m/S 597 mmHg 60%
    08:00 +15°C° 0 mm 1 m/S 598 mmHg 50%
    09:00 +18°C° 0 mm 1 m/S 599 mmHg 41%
    10:00 +20°C° 0 mm 1 m/S 599 mmHg 32%
    11:00 +22°C° 0 mm 1 m/S 599 mmHg 23%
    12:00 +23°C° 0 mm 1 m/S 599 mmHg 22%
    13:00 +24°C° 0 mm 2 m/S 599 mmHg 20%
    14:00 +25°C° 0 mm 3 m/S 598 mmHg 19%
    15:00 +23°C° 0 mm 2 m/S 598 mmHg 24%
    16:00 +20°C° 0 mm 2 m/S 597 mmHg 28%
    17:00 +18°C° 0 mm 2 m/S 596 mmHg 33%
    18:00 +18°C° 0 mm 1 m/S 596 mmHg 37%
    19:00 +16°C° 0 mm 1 m/S 596 mmHg 42%
    20:00 +14°C° 0 mm 0 m/S 596 mmHg 47%
    21:00 +13°C° 0 mm 0 m/S 596 mmHg 48%
    22:00 +13°C° 0 mm 1 m/S 595 mmHg 48%
    23:00 +13°C° 0 mm 1 m/S 595 mmHg 49%

    9 Dezember, Montag

    Zeit Temperatur Niederschläge Wind Luftdruck Luftfeuchtigkeit
    00:00 +13°C° 0 mm 1 m/S 595 mmHg 48%
    01:00 +12°C° 0 mm 1 m/S 594 mmHg 47%
    02:00 +12°C° 0 mm 1 m/S 594 mmHg 47%
    03:00 +11°C° 0 mm 1 m/S 594 mmHg 47%
    04:00 +11°C° 0 mm 1 m/S 594 mmHg 47%
    05:00 +11°C° 0 mm 1 m/S 594 mmHg 47%
    06:00 +13°C° 0 mm 1 m/S 595 mmHg 43%
    07:00 +15°C° 0 mm 1 m/S 596 mmHg 38%
    08:00 +18°C° 0 mm 1 m/S 597 mmHg 34%
    09:00 +20°C° 0 mm 1 m/S 598 mmHg 30%
    10:00 +22°C° 0 mm 1 m/S 598 mmHg 26%
    11:00 +22°C° 0 mm 0 m/S 598 mmHg 22%
    12:00 +24°C° 0 mm 1 m/S 598 mmHg 20%
    13:00 +25°C° 0 mm 1 m/S 598 mmHg 19%
    14:00 +26°C° 0 mm 1 m/S 597 mmHg 17%
    15:00 +24°C° 0 mm 1 m/S 597 mmHg 21%
    16:00 +22°C° 0 mm 1 m/S 596 mmHg 25%
    17:00 +20°C° 0 mm 1 m/S 595 mmHg 29%
    18:00 +19°C° 0 mm 1 m/S 595 mmHg 32%
    19:00 +18°C° 0 mm 1 m/S 595 mmHg 35%
    20:00 +15°C° 0 mm 0 m/S 595 mmHg 38%
    21:00 +16°C° 0 mm 1 m/S 595 mmHg 40%
    22:00 +15°C° 0 mm 1 m/S 595 mmHg 42%
    23:00 +14°C° 0 mm 1 m/S 595 mmHg 44%

    10 Dezember, Dienstag

    Zeit Temperatur Niederschläge Wind Luftdruck Luftfeuchtigkeit
    00:00 +14°C° 0 mm 1 m/S 595 mmHg 48%
    01:00 +13°C° 0 mm 1 m/S 594 mmHg 52%
    02:00 +13°C° 0 mm 1 m/S 594 mmHg 56%
    03:00 +13°C° 0 mm 1 m/S 594 mmHg 61%
    04:00 +12°C° 0 mm 1 m/S 594 mmHg 66%
    05:00 +12°C° 0 mm 1 m/S 594 mmHg 70%
    06:00 +13°C° 0 mm 1 m/S 595 mmHg 65%
    07:00 +15°C° 0 mm 1 m/S 596 mmHg 60%
    08:00 +18°C° 0 mm 1 m/S 598 mmHg 54%
    09:00 +20°C° 0 mm 1 m/S 598 mmHg 48%
    10:00 +21°C° 0 mm 1 m/S 598 mmHg 41%
    11:00 +23°C° 0 mm 1 m/S 599 mmHg 35%
    12:00 +23°C° 0 mm 1 m/S 599 mmHg 33%
    13:00 +24°C° 0 mm 2 m/S 599 mmHg 30%
    14:00 +25°C° 0 mm 3 m/S 599 mmHg 28%
    15:00 +22°C° 0 mm 3 m/S 598 mmHg 41%
    16:00 +20°C° 0 mm 4 m/S 598 mmHg 55%
    17:00 +17°C° 0 mm 4 m/S 597 mmHg 68%
    18:00 +17°C° 0 mm 4 m/S 598 mmHg 72%
    19:00 +16°C° 0 mm 3 m/S 598 mmHg 76%
    20:00 +14°C° 0 mm 3 m/S 598 mmHg 81%
    21:00 +14°C° 0 mm 2 m/S 599 mmHg 81%
    22:00 +14°C° 0 mm 2 m/S 599 mmHg 82%
    23:00 +14°C° 0 mm 1 m/S 599 mmHg 82%

    11 Dezember, Mittwoch

    Zeit Temperatur Niederschläge Wind Luftdruck Luftfeuchtigkeit
    00:00 +14°C° 0 mm 1 m/S 598 mmHg 83%
    01:00 +14°C° 0 mm 1 m/S 598 mmHg 83%
    02:00 +14°C° 0 mm 2 m/S 598 mmHg 84%
    03:00 +13°C° 0 mm 2 m/S 598 mmHg 84%
    04:00 +13°C° 0 mm 2 m/S 598 mmHg 85%
    05:00 +13°C° 0 mm 2 m/S 598 mmHg 86%
    06:00 +13°C° 0 mm 2 m/S 598 mmHg 83%
    07:00 +13°C° 0 mm 2 m/S 599 mmHg 81%
    08:00 +13°C° 0 mm 2 m/S 599 mmHg 78%
    09:00 +14°C° 0 mm 2 m/S 600 mmHg 73%
    10:00 +14°C° 0 mm 3 m/S 600 mmHg 67%
    11:00 +16°C° 0 mm 3 m/S 600 mmHg 62%
    12:00 +17°C° 0 mm 3 m/S 599 mmHg 60%
    13:00 +17°C° 0 mm 3 m/S 599 mmHg 58%
    14:00 +18°C° 0 mm 3 m/S 599 mmHg 56%
    15:00 +17°C° 0 mm 3 m/S 598 mmHg 62%
    16:00 +14°C° 0 mm 3 m/S 598 mmHg 68%
    17:00 +14°C° 0 mm 2 m/S 597 mmHg 74%
    18:00 +13°C° 0 mm 2 m/S 598 mmHg 79%
    19:00 +12°C° 0 mm 2 m/S 598 mmHg 84%
    20:00 +12°C° 0 mm 1 m/S 598 mmHg 89%
    21:00 +11°C° 0 mm 1 m/S 598 mmHg 90%
    22:00 +11°C° 0 mm 1 m/S 598 mmHg 90%
    23:00 +11°C° 0 mm 1 m/S 598 mmHg 91%
    Mehr zeigen